Showing default

GHGSAT-C5, 52744

Orbit data source: Space-Track

GHGSAT-C5, 52744 is a payload satellite owned by GHG (CA) in SSO that was launched on Wed, 25 May 2022 UTC via an FALCON 9 launch vehicle from the Air Force Eastern Test Range (AFETR). Payload-class satellites include a variety of spacecraft equipped with specific instruments for various scientific and technological missions. These include communications satellites like Starlink; space stations such as the ISS; scientific satellites like the Hubble; Earth observation satellites from companies like Planet Labs, Umbra, and HawkEye 360; GPS; miniature CubeSats for education and research; and military/defense satellites.

Loading next visibility...
Identifier
52744, 2022-057N
Orbit
SSO
Country
Flag of CACA
Related business
Manufacturer
UTIAS-SFL
Mission
Operational Commercial Earth Obs Sci
Bus & Motor
NEMO-V1, Unknown motor
Mass
15 kg wet, 15 kg dry
Launch date (UTC)
2022-05-25 (4 years ago)
Launch vehicle
FALCON 9
Launch site
Air Force Eastern Test Range (AFETR)
Object type
Payload
Rocket body
Debris
Shape & HBR
Box, 1.0 m
Radar Cross Section
0.100 m², Medium (>0.1 m² and < 1m²)

Expand to show TLE details & history
Last TLE update: 22 hours ago

TLE from 22 hours ago
0 GHGSAT-C5
1 52744U 22057N   26172.51711953  .00005248  00000-0  16011-3 0  9999
2 52744  97.6693 319.9145 0007986 103.5512 256.6620 15.34375298226209
Epoch: 2026-06-21T12:24Z
TLE epoch observation values (Epoch: 2026-06-21T12:24:39.127Z)
Latitude
-0.00004°
Longitude
-135.96478°
Altitude
467.144 km
Speed
7.632 km/s
True Right ascension
21h 19m 39s
True Declination
0° 00' 00"
Sunlit
Object was in full shadow at epoch
Visualization orbit readout
Latitude
Unknown
Longitude
Unknown
Altitude
Unknown
Speed
Unknown
Apparent Right ascension
Unknown
Apparent Declination
Unknown
Sunlit
N/A
Visualization observer readout
Local Sidereal Time
21:51:57
Azimuth
Unknown
Elevation
Unknown
Doppler factor
Unknown
Orbital elements
Apogee altitude
465.196 km
Perigee altitude
454.274 km
Semi-major axis
6,837.872 km
Eccentricity
0.0008
Inclination
97.6693°
RAAN
319.9145°
Arg. of periapsis
103.5512°
True anomaly
256.57298°
Mean anomaly
256.662°
Eccentric anomaly
256.61749°
Mean motion
3.8385 °/min
Orbital period
93.79 mins
BSTAR
0.00016011
Loading maneuver chart data...
Computing Atmospheric mass density...

Documentation

Showing up to 5 results
|